EW2099 Weather Reports


Display with metric or nautical units.
time (UTC)temp
F
wind
direction
speed
MPH
gust
MPH
rain 1hr
in
rain 24hr
in
rain mn
in
humidity
%
barometer
mb
20260504043041 51 231 0.0 1.0 0.00 0.26 0.01 76 1011.8
20260504041540 51 261 0.0 1.0 0.00 0.26 0.01 76 1011.8
20260504040039 51 260 0.0 0.0 0.00 0.26 0.01 76 1011.9
20260504034541 51 260 0.0 1.0 0.00 0.26 0.01 76 1011.9
20260504033035 52 236 0.0 1.0 0.01 0.26 0.01 76 1011.9
20260504031534 52 251 0.0 3.0 0.01 0.26 0.01 77 1011.9
20260504030039 52 250 0.0 1.0 0.01 0.26 0.01 77 1011.9
20260504024531 53 274 0.0 2.0 0.01 0.26 0.01 77 1011.9
20260504023031 53 246 0.0 0.0 0.00 0.25 0.00 77 1011.8
20260504021533 53 231 0.0 0.0 0.00 0.25 0.00 77 1012.0
20260504020029 53 230 0.0 1.0 0.00 0.25 0.00 77 1011.9
20260504014527 53 230 0.0 0.0 0.00 0.25 0.00 76 1011.7
20260504013026 53 242 0.0 0.0 0.00 0.25 0.00 76 1011.9
20260504011525 54 242 0.0 0.0 0.00 0.25 0.00 76 1011.8
20260504010023 54 242 0.0 0.0 0.00 0.25 0.00 76 1011.8
20260504004524 54 242 0.0 0.0 0.00 0.25 0.00 76 1011.9
20260504003022 54 242 0.0 0.0 0.00 0.25 0.00 76 1011.9
20260504001522 54 242 0.0 0.0 0.00 0.25 0.00 76 1011.9
20260504000020 54 242 0.0 0.0 0.00 0.25 0.00 75 1011.8
20260503234527 54 242 0.0 0.0 0.00 0.25 0.00 75 1011.8
20260503233016 55 242 0.0 0.0 0.00 0.25 0.00 75 1011.8
20260503231515 55 242 0.0 0.0 0.00 0.25 0.00 75 1011.8
20260503230016 56 242 0.0 0.0 0.00 0.25 0.00 74 1011.6
20260503224514 56 242 0.0 1.0 0.00 0.25 0.00 74 1011.7
20260503223010 56 252 0.0 1.0 0.00 0.25 0.00 74 1011.7
20260503221509 56 163 0.0 1.0 0.00 0.25 0.00 74 1011.7
20260503220020 57 153 0.0 2.0 0.00 0.25 0.25 74 1011.8
20260503214507 57 162 0.0 3.0 0.00 0.25 0.25 74 1011.7
20260503213009 57 203 0.0 3.0 0.00 0.25 0.25 74 1011.7
20260503211505 57 152 0.0 2.0 0.00 0.25 0.25 74 1011.7
20260503210005 57 162 0.0 1.0 0.00 0.25 0.25 73 1011.6
20260503204504 57 176 0.0 1.0 0.00 0.25 0.25 72 1011.5
20260503203003 58 165 0.0 1.0 0.00 0.25 0.25 72 1011.4
20260503201503 58 209 0.0 2.0 0.00 0.25 0.25 72 1011.3
20260503200002 58 127 0.0 1.0 0.00 0.25 0.25 71 1011.1
20260503194501 58 158 0.0 0.0 0.00 0.25 0.25 70 1011.0
20260503193000 59 162 0.0 0.0 0.00 0.25 0.25 69 1010.9
20260503191609 59 214 0.0 1.0 0.00 0.25 0.25 67 1011.0
20260503190100 59 233 0.0 1.0 0.00 0.25 0.25 67 1010.8
20260503184610 59 199 0.0 3.0 0.00 0.25 0.25 67 1010.8
20260503183110 60 326 0.0 2.0 0.00 0.25 0.25 66 1010.5
20260503181609 60 192 0.0 4.0 0.00 0.25 0.25 66 1010.5
20260503180058 60 196 0.0 2.0 0.00 0.25 0.25 67 1010.5
20260503174557 60 207 0.0 2.0 0.00 0.25 0.25 67 1010.5
20260503173102 59 248 0.0 1.0 0.00 0.25 0.25 67 1010.4
20260503171557 59 227 0.0 2.0 0.01 0.25 0.25 66 1010.5
20260503081532 58 231 1.0 3.0 0.01 0.05 0.05 66 1011.1
20260503071524 58 257 1.0 7.0 0.03 0.04 0.04 66 1011.1
20260503054517 59 229 2.0 7.0 0.00 0.00 0.00 62 1010.6
20260503053015 59 221 1.0 3.0 0.00 0.00 0.00 63 1010.5
20260503051515 58 250 0.0 3.0 0.00 0.00 0.00 63 1010.3
20260503050026 58 221 0.0 3.0 0.00 0.00 0.00 63 1010.4
20260503044512 58 179 0.0 2.0 0.00 0.00 0.00 63 1010.4